Theta_e
309 311 311 313 314 315 317 315 316 316 315 316 317 318 319 318 322 323 322 321 322 326 321 319 319 318 318 319 321 320 320 320 321 322 327 336 339 344 342 344 343 340 340 339
310 311 312 312 314 315 316 316 317 317 316 316 317 318 319 319 319 319 320 320 320 324 319 318 318 318 318 318 319 319 320 320 320 321 322 324 328 339 343 341 342 339 335 329
314 314 313 314 316 315 316 317 317 317 317 317 318 317 318 317 317 316 316 318 318 318 317 316 317 318 318 318 319 319 320 320 320 320 321 327 339 344 345 340 329 323 320 318
316 316 316 316 317 317 318 317 317 317 318 319 317 320 320 319 317 317 317 315 314 314 315 316 317 318 318 319 320 320 321 322 324 327 329 337 340 338 326 320 319 317 314 314
315 316 316 316 317 317 318 317 317 318 319 318 318 319 320 318 319 319 319 320 318 318 318 318 318 317 317 318 319 322 327 333 336 339 331 324 321 320 319 317 315 314 315 315
315 315 317 318 317 317 316 316 316 316 318 320 320 319 319 319 319 321 321 318 317 318 319 320 320 319 318 319 319 324 327 326 323 320 320 320 319 317 316 315 315 315 315 315
316 316 317 316 318 318 316 318 319 319 319 319 316 318 319 318 320 320 320 318 317 317 318 318 318 318 319 321 324 324 321 320 320 320 319 318 318 317 316 316 315 315 315 315
319 316 317 319 320 320 320 318 320 320 320 319 318 319 322 320 317 316 317 317 316 315 315 317 317 318 320 321 320 320 320 320 320 320 320 319 318 318 318 318 317 317 316 316
319 317 319 320 320 320 320 321 317 320 319 320 320 321 322 320 319 318 317 316 315 315 315 315 315 315 315 316 318 319 320 320 319 318 317 317 317 317 318 319 318 318 317 316
319 321 320 321 320 320 321 318 322 322 323 321 321 323 324 322 321 319 318 316 315 314 314 314 314 314 314 314 314 315 315 315 315 314 314 314 314 315 315 316 316 316 317 317
317 320 321 320 320 322 321 323 322 321 322 323 321 321 320 322 320 319 317 315 314 313 312 312 311 312 312 312 313 313 313 312 312 312 312 312 313 313 313 314 314 315 316 317
317 320 322 320 318 317 319 321 323 328 326 323 324 323 317 318 317 317 316 314 312 312 311 310 310 310 310 310 310 310 309 309 308 307 308 309 309 309 309 309 309 310 312 312
322 321 323 322 320 319 321 321 321 321 323 325 324 323 316 316 316 315 315 314 312 311 311 310 309 308 308 307 306 306 306 305 305 305 305 305 306 306 306 307 307 307 307 308
320 320 321 324 320 320 322 322 322 322 325 322 322 322 319 317 317 315 314 313 312 311 310 309 309 308 307 305 304 303 303 303 304 304 305 306 307 308 309 310 311 311 310 309
318 321 319 318 318 317 319 320 320 321 320 321 320 322 321 320 318 315 313 312 312 311 310 308 308 307 306 304 302 302 302 303 304 305 306 307 308 309 310 311 310 309 308 307
314 319 317 316 314 314 316 316 317 317 317 318 318 318 316 314 313 312 312 311 311 309 308 307 306 305 304 304 302 302 303 304 305 305 306 306 305 305 306 305 304 303 303 302
316 317 316 315 313 313 313 313 314 314 314 315 316 315 315 314 313 312 311 310 309 307 306 306 305 304 303 302 302 302 303 302 302 301 302 302 301 301 301 301 301 301 300 300
315 314 313 314 313 313 313 316 315 315 315 315 314 313 312 311 310 310 309 308 307 306 305 304 303 302 302 301 300 301 300 300 300 300 300 299 299 299 299 299 299 299 299 299
312 313 313 315 314 312 316 317 317 317 317 313 314 312 311 310 310 309 307 305 305 304 303 302 301 301 300 299 298 298 298 298 299 299 298 299 299 298 298 298 299 299 298 298
311 311 314 312 315 315 317 315 314 315 319 312 311 311 310 309 313 311 306 304 303 301 300 299 298 298 297 297 296 296 297 297 297 299 300 300 300 300 299 299 299 298 298 298
314 314 314 313 314 313 312 314 313 318 316 311 309 309 308 309 307 305 303 301 300 299 298 297 296 296 295 295 295 295 296 299 300 300 300 300 299 299 299 299 298 298 298 299
312 313 313 313 315 316 313 314 315 313 309 308 306 305 305 304 303 301 300 299 298 297 296 295 295 295 294 295 295 297 300 301 301 300 300 300 300 299 299 299 299 299 300 300
316 315 316 314 315 314 312 311 309 310 308 305 304 302 301 300 300 299 298 297 296 295 294 294 293 293 294 296 297 299 301 300 300 298 299 299 299 300 299 300 301 300 300 301
315 313 315 314 314 314 307 305 305 305 303 301 300 299 299 299 298 297 296 295 294 294 293 292 292 293 295 296 298 299 299 298 299 299 300 300 300 299 300 300 301 301 301 301
312 313 314 313 314 309 308 305 303 301 300 299 298 298 298 297 297 295 295 294 293 292 292 292 292 293 294 296 299 298 299 299 300 300 300 299 300 301 301 302 302 302 302 303
310 313 315 314 313 312 306 302 301 300 299 297 297 298 297 296 295 294 293 292 292 292 292 291 291 293 294 296 297 298 299 300 300 301 301 300 300 301 302 302 303 305 304 305
Wind_Speed
9 11 14 16 15 13 13 9 15 16 21 18 22 21 20 17 18 17 22 29 40 43 40 32 29 26 26 26 25 20 18 17 15 16 16 16 18 21 22 21 17 17 18 17
7 15 14 14 14 13 13 16 11 4 13 15 20 24 22 15 18 25 21 37 39 32 36 44 39 30 23 24 26 22 23 18 18 19 19 20 19 19 19 18 19 18 16 14
9 5 16 11 11 13 15 14 11 6 5 9 9 18 16 16 22 22 34 44 43 43 40 36 29 24 24 25 29 28 26 22 21 20 21 23 20 19 21 18 15 14 14 14
8 9 10 12 15 14 16 15 15 9 5 7 5 8 11 11 14 10 11 19 27 27 26 22 17 16 22 26 29 31 30 29 26 26 25 23 21 18 15 13 13 14 13 11
9 12 11 10 16 17 17 12 15 14 9 4 6 5 6 4 7 7 2 2 3 2 7 11 11 15 20 27 32 33 29 25 21 17 13 11 13 14 13 15 14 14 13 12
10 4 5 5 7 14 5 5 5 3 5 10 10 8 7 4 2 1 2 8 9 6 2 2 2 9 16 21 25 27 22 16 13 12 13 13 12 10 12 15 15 14 16 16
5 9 5 4 6 5 6 8 6 7 7 7 4 7 0 2 3 4 5 10 15 15 13 11 7 6 3 7 15 18 20 20 20 20 18 17 17 15 16 17 19 19 20 22
10 9 9 9 10 7 7 7 7 12 7 8 3 6 3 4 6 7 11 15 17 20 20 21 18 16 16 18 20 21 23 21 19 20 20 21 21 23 23 25 27 28 28 28
10 10 3 6 4 5 6 5 2 6 1 4 4 2 1 5 8 10 14 15 16 17 18 20 18 17 13 11 10 9 11 12 14 16 18 21 23 25 27 30 32 33 34 35
5 4 2 4 4 6 5 9 4 3 6 8 6 5 6 11 8 8 10 13 14 16 17 17 16 15 13 10 7 3 3 7 11 14 15 18 20 22 24 26 29 31 33 34
5 3 3 2 1 5 5 5 4 3 1 6 7 4 0 7 6 9 11 12 12 13 13 13 13 12 10 7 5 4 5 7 10 13 15 18 20 22 25 27 28 30 32 32
2 3 4 3 3 4 1 2 3 4 5 1 0 3 3 7 8 11 12 12 11 11 10 9 8 8 7 7 8 10 12 15 18 21 24 26 29 31 33 34 35 36 38 38
8 2 2 3 3 3 2 2 3 4 1 9 8 3 6 6 7 8 10 8 7 6 5 6 7 9 11 14 16 18 21 24 27 29 32 34 36 38 40 41 42 43 44 44
11 5 5 5 3 3 4 6 6 2 3 4 8 4 9 8 7 7 6 5 3 3 6 10 12 15 17 21 24 26 27 28 31 33 35 37 39 40 41 41 41 41 40 41
2 5 4 7 5 4 4 8 7 7 3 5 0 6 5 8 5 5 4 3 1 2 6 10 13 15 19 23 25 27 30 33 35 37 37 36 36 35 34 33 33 34 34 34
3 4 4 3 4 2 4 6 7 7 7 9 9 12 7 3 8 6 3 2 4 4 9 12 15 18 20 22 26 30 34 35 35 34 33 31 29 28 29 29 28 27 28 28
3 6 3 4 1 2 6 10 12 5 5 7 9 8 1 4 3 1 3 5 2 7 13 16 19 21 23 26 29 32 32 31 30 28 26 26 26 25 25 25 25 25 26 26
6 5 2 4 4 4 5 3 6 7 5 4 4 6 6 4 3 6 3 4 6 14 19 21 22 23 23 27 29 27 29 27 24 24 24 25 24 26 27 25 24 25 26 26
3 4 4 3 4 2 5 4 5 3 5 3 5 4 4 8 7 6 5 8 15 19 21 22 23 23 29 28 25 24 23 22 22 23 24 25 26 27 27 26 31 32 32 31
8 6 4 3 3 4 4 4 4 1 4 3 3 3 5 8 5 3 13 20 22 21 21 23 25 25 24 25 22 22 22 22 22 25 27 28 28 28 28 28 31 31 33 32
4 2 3 4 1 2 2 1 2 4 4 5 4 4 5 5 6 16 19 20 18 20 22 23 22 23 22 22 21 21 21 21 22 25 26 26 26 26 27 28 28 29 28 29
5 5 3 2 2 2 2 2 3 6 7 6 6 6 7 10 14 17 20 21 22 24 24 22 22 22 21 19 20 22 20 20 22 24 26 27 28 28 28 28 27 26 27 27
5 1 5 3 2 7 10 11 6 4 10 7 5 6 8 11 14 16 19 20 20 21 22 20 21 22 20 20 18 19 17 19 22 25 26 26 27 27 27 27 28 25 25 26
4 3 3 4 5 9 13 15 13 12 12 8 8 8 10 13 15 16 17 19 20 19 21 22 22 23 23 18 16 16 19 20 23 25 26 26 27 27 27 26 26 23 23 24
2 8 7 5 10 15 11 13 12 13 11 9 8 9 12 14 15 17 19 20 20 21 23 22 22 22 20 18 16 16 19 21 22 23 24 25 26 25 27 27 25 25 21 19
3 5 4 2 10 8 11 13 10 12 10 9 9 9 11 16 18 19 21 20 20 21 20 21 20 19 19 18 17 17 18 19 20 21 22 22 22 27 26 25 27 21 19 15
Wind_Direction
186 205 211 225 207 240 246 246 230 226 213 206 218 226 232 221 211 209 233 266 267 267 265 268 270 254 242 229 219 215 225 229 226 228 229 224 220 218 221 227 224 232 239 244
178 223 217 222 237 235 241 260 239 295 192 203 218 230 229 216 223 213 206 240 256 263 272 268 267 263 242 237 229 229 233 231 230 223 223 223 221 218 220 221 224 228 233 244
195 214 209 202 239 239 234 244 252 240 154 220 196 229 233 220 228 218 219 226 237 243 250 252 254 248 234 224 224 227 230 230 231 228 227 226 221 223 221 214 209 220 237 252
219 216 183 210 230 220 244 229 242 249 224 230 218 217 204 180 198 210 206 218 229 237 234 235 225 222 217 218 219 222 225 223 223 223 224 226 226 211 211 222 230 238 239 255
193 179 192 217 229 203 244 225 229 236 230 222 193 235 173 158 210 167 233 70 61 152 205 219 208 216 220 221 223 224 225 222 218 207 197 199 204 214 224 234 237 245 257 267
191 195 187 213 202 198 134 142 127 158 208 232 217 231 197 168 124 130 66 25 32 18 23 334 270 231 220 223 222 213 208 198 191 195 207 215 221 243 262 255 249 258 261 264
180 204 210 191 208 155 189 185 181 195 201 226 176 201 98 52 28 340 21 53 57 60 63 65 70 71 117 173 181 177 178 188 197 204 210 219 228 242 250 249 251 257 261 263
200 213 201 192 219 216 194 216 229 216 193 184 168 210 136 23 53 86 90 79 70 66 70 79 88 103 126 147 160 174 187 199 208 216 225 235 243 250 252 251 253 254 256 257
187 216 167 200 174 196 160 207 94 107 33 201 155 107 16 97 85 89 83 74 66 71 77 82 86 93 102 131 149 175 196 213 230 242 250 255 260 263 262 260 260 261 261 262
190 148 118 115 136 62 227 135 176 155 193 223 167 185 152 163 127 93 70 75 80 79 79 83 86 86 86 87 96 128 208 245 257 262 268 272 272 272 269 269 268 269 269 268
141 192 153 225 38 181 151 162 78 93 358 235 232 174 198 154 131 104 102 99 91 84 82 80 77 72 63 53 36 4 317 297 287 285 284 283 282 282 282 282 282 279 276 274
92 89 148 156 351 282 348 116 175 186 184 114 259 143 71 125 125 128 126 119 109 101 93 77 59 39 19 0 336 321 313 309 305 302 298 294 290 287 285 281 277 274 273 271
134 73 161 185 186 154 156 86 95 95 95 208 224 158 134 134 125 127 127 122 113 92 63 32 13 358 344 334 328 322 316 311 308 304 302 298 296 294 292 291 289 286 283 280
113 128 209 222 87 117 155 145 140 147 194 215 238 177 173 176 152 146 149 136 114 45 10 355 346 342 336 330 325 320 316 312 309 307 304 302 300 299 297 295 294 292 289 285
103 137 153 92 101 82 143 165 165 195 176 236 164 232 225 214 201 166 152 178 239 342 348 341 335 330 325 321 318 315 312 313 312 309 306 305 302 300 299 299 299 297 295 292
24 110 124 108 83 103 229 240 241 238 242 257 268 274 283 99 132 155 179 272 266 314 330 328 327 323 320 318 316 315 315 312 310 308 306 303 302 301 300 299 299 297 296 294
86 133 136 158 136 177 250 238 223 211 208 238 243 277 167 127 136 100 316 309 274 330 328 323 320 318 315 314 315 315 313 312 309 307 305 304 302 301 300 299 298 297 296 295
122 108 81 131 165 211 51 318 204 167 136 168 116 89 81 66 355 324 352 80 344 329 324 320 317 315 314 314 316 312 310 310 308 305 305 305 305 303 305 303 299 299 299 296
62 116 110 160 193 28 128 108 128 192 135 101 119 92 38 355 328 103 80 356 329 320 317 315 316 314 312 314 313 311 310 309 309 309 308 310 312 310 308 302 308 311 309 303
80 81 103 155 183 177 103 104 5 203 188 127 112 69 20 350 308 17 331 327 323 321 319 317 314 314 315 316 318 313 314 313 314 316 322 323 321 320 318 315 314 315 314 310
137 132 140 150 154 123 89 357 328 219 77 110 88 59 15 344 321 308 316 319 320 318 317 317 315 313 315 318 317 313 314 320 325 329 329 329 328 324 322 322 320 318 315 316
149 141 156 130 204 195 1 148 242 104 98 98 71 32 350 327 320 319 321 322 321 321 322 321 318 315 319 319 316 315 322 327 330 330 330 331 331 329 327 323 321 315 318 318
150 192 158 198 103 107 78 87 83 115 117 82 57 11 344 330 327 324 321 320 321 322 321 322 320 318 318 323 322 318 325 321 323 327 332 334 333 331 331 328 322 316 315 314
115 127 94 147 148 122 111 101 99 98 97 80 46 20 3 344 334 331 329 328 328 328 328 325 323 323 326 328 324 320 314 320 325 331 336 334 334 336 330 326 325 318 313 314
58 160 135 115 122 104 99 113 113 97 84 70 46 32 21 3 351 344 338 336 334 332 332 332 331 329 328 329 326 319 324 326 329 333 335 335 343 343 336 333 333 331 315 309
189 141 174 141 157 115 131 127 112 97 78 54 33 15 13 9 1 352 346 343 341 340 338 338 337 334 331 329 326 327 329 327 329 332 334 336 342 339 341 338 337 347 343 318